Location: Campillo
(40.8621°N, 4.2488°W)
Time: 17:28:54
(UTC+00:00)

Cosmos 2084 - Pass Details

Date: 30 September 2021
Orbit: 528 x 653 km, 62.8° (Epoch: 25 October)

Event Time Altitude Azimuth Distance (km) Brightness Sun altitude
Exits shadow 03:52:00 45° 59° (ENE) 743 4.3 -26.9°
Drops below altitude 10° 03:54:57 10° 41° (NE) 1,813 6.7 -26.4°
Sets 03:57:12 0° 38° (NE) 2,727 7.8 -26.0°
